Tracking 35237 objects as of 6-Sep-2026
HD Live streaming from Space Station
objects crossing your sky now

COSMOS 1257

Track COSMOS 1257 now!
10-day predictions
COSMOS 1257 is classified as:


NORAD ID: 12327
Int'l Code: 1981-022H
Launch date: March 6, 1981
Source: Commonwealth of Independent States (former USSR) (CIS)
Launch site: PLESETSK MISSILE AND SPACE COMPLEX (PKMTR)
Your satellite tracking list
Your tracking list is empty




NASA's NSSDC Master Catalog

Two Line Element Set (TLE):
1 12327U 81022H   26248.60961903 -.00000016  00000-0 -10018-5 0  9998
2 12327  74.0310 312.8778 0006752 181.9730 250.0656 12.47858500 72707
Source of the keplerian elements: AFSPC